Hourly Weather Ruch'i

Today, 1 August, Sunday

Time Temperature Precipitation Wind Pressure Humidity
00:00 +27°C° 0 mm 1 mps 757 mmHg 57%
01:00 +27°C° 0 mm 1 mps 757 mmHg 57%
02:00 +27°C° 0 mm 1 mps 757 mmHg 59%
03:00 +26°C° 0 mm 1 mps 757 mmHg 61%
04:00 +26°C° 0 mm 1 mps 757 mmHg 63%
05:00 +25°C° 0 mm 1 mps 757 mmHg 65%
06:00 +27°C° 0 mm 1 mps 758 mmHg 58%
07:00 +29°C° 0 mm 1 mps 758 mmHg 52%
08:00 +31°C° 0 mm 1 mps 758 mmHg 46%
09:00 +32°C° 0 mm 1 mps 758 mmHg 41%
10:00 +34°C° 0 mm 2 mps 758 mmHg 36%
11:00 +36°C° 0 mm 2 mps 758 mmHg 31%
12:00 +36°C° 0 mm 3 mps 757 mmHg 31%
13:00 +36°C° 0 mm 3 mps 757 mmHg 30%
14:00 +36°C° 0 mm 4 mps 757 mmHg 29%
15:00 +36°C° 0 mm 4 mps 757 mmHg 31%
16:00 +35°C° 0 mm 4 mps 757 mmHg 32%
17:00 +35°C° 0 mm 4 mps 757 mmHg 34%
18:00 +33°C° 0 mm 4 mps 757 mmHg 44%
19:00 +30°C° 0 mm 3 mps 757 mmHg 54%
20:00 +27°C° 0 mm 2 mps 757 mmHg 64%
21:00 +27°C° 0 mm 2 mps 757 mmHg 65%
22:00 +27°C° 0 mm 2 mps 757 mmHg 66%
23:00 +26°C° 0 mm 2 mps 757 mmHg 67%

Tomorrow, 2 August, Monday

Time Temperature Precipitation Wind Pressure Humidity
00:00 +26°C° 0 mm 2 mps 758 mmHg 67%
01:00 +26°C° 0 mm 2 mps 758 mmHg 67%
02:00 +26°C° 0 mm 2 mps 758 mmHg 67%
03:00 +25°C° 0 mm 2 mps 758 mmHg 67%
04:00 +25°C° 0 mm 1 mps 758 mmHg 66%
05:00 +25°C° 0 mm 1 mps 758 mmHg 66%
06:00 +27°C° 0 mm 1 mps 758 mmHg 59%
07:00 +29°C° 0 mm 1 mps 758 mmHg 52%
08:00 +31°C° 0 mm 2 mps 758 mmHg 44%
09:00 +34°C° 0 mm 2 mps 758 mmHg 40%
10:00 +35°C° 0 mm 2 mps 757 mmHg 36%
11:00 +37°C° 0 mm 2 mps 757 mmHg 32%
12:00 +37°C° 0 mm 3 mps 757 mmHg 32%
13:00 +37°C° 0 mm 5 mps 757 mmHg 32%
14:00 +38°C° 0 mm 6 mps 757 mmHg 33%
15:00 +36°C° 0 mm 5 mps 756 mmHg 33%
16:00 +36°C° 0 mm 5 mps 756 mmHg 33%
17:00 +36°C° 0 mm 4 mps 756 mmHg 33%
18:00 +33°C° 0 mm 3 mps 756 mmHg 41%
19:00 +30°C° 0 mm 3 mps 757 mmHg 48%
20:00 +28°C° 0 mm 3 mps 757 mmHg 56%
21:00 +27°C° 0 mm 3 mps 757 mmHg 58%
22:00 +27°C° 0 mm 3 mps 757 mmHg 59%
23:00 +26°C° 0 mm 3 mps 757 mmHg 61%

Day after tomorrow, 3 August, Tuesday

Time Temperature Precipitation Wind Pressure Humidity
00:00 +26°C° 0 mm 3 mps 757 mmHg 64%
01:00 +26°C° 0 mm 2 mps 757 mmHg 67%
02:00 +25°C° 0 mm 2 mps 757 mmHg 70%
03:00 +25°C° 0 mm 3 mps 757 mmHg 71%
04:00 +25°C° 0 mm 3 mps 758 mmHg 72%
05:00 +25°C° 0 mm 3 mps 758 mmHg 73%
06:00 +27°C° 0 mm 3 mps 758 mmHg 66%
07:00 +29°C° 0 mm 3 mps 758 mmHg 59%
08:00 +32°C° 0 mm 4 mps 758 mmHg 51%
09:00 +33°C° 0 mm 4 mps 758 mmHg 48%
10:00 +34°C° 0 mm 4 mps 758 mmHg 45%
11:00 +35°C° 0 mm 5 mps 758 mmHg 42%
12:00 +35°C° 0 mm 5 mps 758 mmHg 41%
13:00 +36°C° 0 mm 5 mps 758 mmHg 40%
14:00 +36°C° 0 mm 5 mps 758 mmHg 40%
15:00 +35°C° 0 mm 5 mps 758 mmHg 41%
16:00 +35°C° 0 mm 5 mps 758 mmHg 42%
17:00 +34°C° 0 mm 5 mps 758 mmHg 43%
18:00 +33°C° 0 mm 5 mps 758 mmHg 45%
19:00 +30°C° 0 mm 5 mps 759 mmHg 48%
20:00 +29°C° 0 mm 5 mps 759 mmHg 51%
21:00 +28°C° 0 mm 5 mps 759 mmHg 52%
22:00 +27°C° 0 mm 4 mps 760 mmHg 52%
23:00 +27°C° 0 mm 4 mps 760 mmHg 53%

4 August, Wednesday

Time Temperature Precipitation Wind Pressure Humidity
00:00 +26°C° 0 mm 4 mps 760 mmHg 54%
01:00 +26°C° 0 mm 4 mps 760 mmHg 55%
02:00 +25°C° 0 mm 4 mps 760 mmHg 56%
03:00 +25°C° 0 mm 4 mps 760 mmHg 57%
04:00 +23°C° 0 mm 4 mps 760 mmHg 58%
05:00 +23°C° 0 mm 4 mps 760 mmHg 59%
06:00 +26°C° 0 mm 4 mps 760 mmHg 54%
07:00 +28°C° 0 mm 4 mps 761 mmHg 50%
08:00 +30°C° 0 mm 5 mps 761 mmHg 45%
09:00 +32°C° 0 mm 4 mps 761 mmHg 41%
10:00 +33°C° 0 mm 4 mps 760 mmHg 38%
11:00 +34°C° 0 mm 4 mps 760 mmHg 35%
12:00 +34°C° 0 mm 4 mps 760 mmHg 33%
13:00 +35°C° 0 mm 4 mps 760 mmHg 31%
14:00 +35°C° 0 mm 5 mps 760 mmHg 30%
15:00 +35°C° 0 mm 4 mps 759 mmHg 30%
16:00 +34°C° 0 mm 4 mps 759 mmHg 30%
17:00 +34°C° 0 mm 4 mps 759 mmHg 30%
18:00 +32°C° 0 mm 4 mps 760 mmHg 35%
19:00 +29°C° 0 mm 3 mps 760 mmHg 41%
20:00 +28°C° 0 mm 3 mps 760 mmHg 47%
21:00 +27°C° 0 mm 3 mps 760 mmHg 51%
22:00 +26°C° 0 mm 3 mps 760 mmHg 54%
23:00 +25°C° 0 mm 3 mps 760 mmHg 58%

5 August, Thursday

Time Temperature Precipitation Wind Pressure Humidity
00:00 +25°C° 0 mm 2 mps 760 mmHg 59%
01:00 +25°C° 0 mm 2 mps 760 mmHg 60%
02:00 +25°C° 0 mm 2 mps 760 mmHg 62%
03:00 +24°C° 0 mm 2 mps 760 mmHg 63%
04:00 +24°C° 0 mm 3 mps 760 mmHg 64%
05:00 +24°C° 0 mm 3 mps 760 mmHg 66%
06:00 +26°C° 0 mm 3 mps 760 mmHg 58%
07:00 +29°C° 0 mm 3 mps 760 mmHg 51%
08:00 +32°C° 0 mm 4 mps 760 mmHg 43%
09:00 +33°C° 0 mm 4 mps 760 mmHg 39%
10:00 +34°C° 0 mm 4 mps 759 mmHg 35%
11:00 +36°C° 0 mm 5 mps 759 mmHg 30%
12:00 +36°C° 0 mm 5 mps 759 mmHg 30%
13:00 +36°C° 0 mm 6 mps 758 mmHg 30%
14:00 +38°C° 0 mm 6 mps 758 mmHg 29%
15:00 +36°C° 0 mm 6 mps 758 mmHg 32%
16:00 +35°C° 0 mm 6 mps 758 mmHg 34%
17:00 +34°C° 0 mm 7 mps 758 mmHg 37%
18:00 +32°C° 0 mm 6 mps 758 mmHg 44%
19:00 +29°C° 0 mm 6 mps 758 mmHg 51%
20:00 +27°C° 0 mm 5 mps 758 mmHg 58%
21:00 +26°C° 0 mm 4 mps 757 mmHg 60%
22:00 +26°C° 0 mm 4 mps 757 mmHg 62%
23:00 +25°C° 0 mm 3 mps 757 mmHg 65%

6 August, Friday

Time Temperature Precipitation Wind Pressure Humidity
00:00 +25°C° 0 mm 3 mps 757 mmHg 65%
01:00 +25°C° 0 mm 3 mps 757 mmHg 64%
02:00 +24°C° 0 mm 2 mps 757 mmHg 64%
03:00 +24°C° 0 mm 2 mps 756 mmHg 64%
04:00 +24°C° 0 mm 2 mps 756 mmHg 64%
05:00 +24°C° 0 mm 2 mps 756 mmHg 63%
06:00 +27°C° 0 mm 3 mps 755 mmHg 57%
07:00 +29°C° 0 mm 3 mps 755 mmHg 51%
08:00 +32°C° 0 mm 4 mps 754 mmHg 45%
09:00 +34°C° 0 mm 4 mps 754 mmHg 42%
10:00 +35°C° 0 mm 4 mps 754 mmHg 39%
11:00 +37°C° 0 mm 4 mps 754 mmHg 35%
12:00 +37°C° 0 mm 5 mps 753 mmHg 34%
13:00 +39°C° 0 mm 6 mps 753 mmHg 34%
14:00 +39°C° 0 mm 6 mps 752 mmHg 33%
15:00 +38°C° 0 mm 6 mps 752 mmHg 35%
16:00 +36°C° 0 mm 5 mps 752 mmHg 37%
17:00 +36°C° 0 mm 5 mps 752 mmHg 38%
18:00 +34°C° 0 mm 4 mps 752 mmHg 45%
19:00 +31°C° 0 mm 3 mps 752 mmHg 51%
20:00 +29°C° 0 mm 3 mps 752 mmHg 58%
21:00 +28°C° 0 mm 2 mps 752 mmHg 59%
22:00 +28°C° 0 mm 2 mps 752 mmHg 61%
23:00 +27°C° 0 mm 1 mps 752 mmHg 62%
Show more

We Need Your Consent

Meteoprog and our Service Providers may store and access personal data such as cookies, device identifiers or other similar technologies on your device and process such data to personalise content and ads, as well as provide social media features and to analyse the traffic.

  • Store and/or access information on your device

    Cookies, device identifiers or other information can be stored or accessed on your device for the purposes indicated above.

  • Personalised ads and content, ad and content measurement, audience insights, and products development

    Ads and content can be personalised based on a profile. More data can be added to better personalise ads and content. Ad and content performance can be measured. Insights about the audience who saw the ads and content can be derived. Such data can be used to develop or improve user’s experience, systems and software.

By clicking ‘I Agree’ you will allow the use of indicated cookies, device identifiers, web beacons or other similar technologies. Your settings can be changed in the browser on your device.

For certain purposes, legitimate interests may be relied on, rather than consent. You can read more about this in our Privacy and Cookie Policy.